Regional Weather Roundup
Issued by NWS

Home | Current Version | Previous Version | Text Only | Print | Product List | Glossary Off
Versions: 1 2 3 4 5 6 7 8 9 10 11 12 13 14 15 16 17 18 19 20 21 22 23 24 25 26 27 28 29 30 31 32 33 34 35 36 37 38 39 40 41 42 43 44 45 46 47 48 49 50

079
ASUS43 KDTX 051210
RWRMI
MICHIGAN HOURLY REGIONAL WEATHER ROUNDUP
NATIONAL WEATHER SERVICE DETROIT/PONTIAC MI
700 AM EST MON DEC 05 2016

NOTE: "FAIR" INDICATES FEW OR NO CLOUDS BELOW 12,000 FEET WITH NO
SIGNIFICANT WEATHER AND/OR OBSTRUCTION TO VISIBILITY.

MIZ047>049-052>055-059>063-066>070-074>076-081>083-051300-
SOUTHEAST LOWER MICHIGAN

CITY           SKY/WX    TMP DP  RH WIND       PRES   REMARKS
ADRIAN         CLOUDY    35  32  88 W8        29.99F WCI  29
6HR MIN TEMP:  33; 6HR MAX TEMP:  35;

ALMA           CLOUDY    34  32  92 W9        29.93R WCI  27
ANN ARBOR      CLOUDY    35  32  88 SW10      29.97R WCI  27
BAD AXE        LGT SNOW  32  32  99 W10G17    29.89R WCI  24
CARO           CLOUDY    33  32  96 SW10      29.91R WCI  25
DETROIT CITY   CLOUDY    36  34  92 W9        29.97R WCI  29
6HR MIN TEMP:  34; 6HR MAX TEMP:  36;

DETROIT        CLOUDY    37  33  85 W12       29.99R WCI  29
6HR MIN TEMP:  34; 6HR MAX TEMP:  37;

FLINT          CLOUDY    34  32  92 W9        29.96R WCI  27
6HR MIN TEMP:  32; 6HR MAX TEMP:  35; 6HR PCP: TRACE;

GROSSE ILE     CLOUDY    37  32  84 W9G17     29.98R WCI  30
6HR MIN TEMP:  34; 6HR MAX TEMP:  37;

HILLSDALE      CLOUDY    32  32 100 W12       29.96S WCI  23
HOWELL         CLOUDY    34  32  92 W9        29.96R WCI  27

CITY           SKY/WX    TMP DP  RH WIND       PRES   REMARKS
JACKSON        CLOUDY    34  31  88 W10       29.97R WCI  26
6HR MIN TEMP:  33; 6HR MAX TEMP:  34;

LAMBERTVILLE   CLOUDY    37  32  82 W7        30.00F WCI  32
6HR MIN TEMP:  36; 6HR MAX TEMP:  37;

LANSING        CLOUDY    34  31  88 SW13      29.96R WCI  25
6HR MIN TEMP:  31; 6HR MAX TEMP:  35; 6HR PCP: TRACE;

LAPEER         NOT AVBL
MASON          CLOUDY    34  33  95 W5        29.96S WCI  30
MONROE         CLOUDY    37  33  87 W8        29.99S WCI  30
6HR MIN TEMP:  34; 6HR MAX TEMP:  37;

MT. CLEMENS    CLOUDY    37  32  81 W9        29.93R WCI  31
6HR MIN TEMP:  34; 6HR MAX TEMP:  37;

PONTIAC        CLOUDY    34  31  88 W9        29.94R WCI  27
6HR MIN TEMP:  33; 6HR MAX TEMP:  34; 6HR PCP: TRACE;

PORT HOPE        N/A     35  32  88 W9G18     29.85R WCI  28
6HR MIN TEMP:  33; 6HR MAX TEMP:  35; 6HR PCP:  0.02;

PORT HURON     CLOUDY    34  32  93 SW5       29.94R WCI  30
TRI CITIES     CLOUDY    34  32  92 SW10      29.92R WCI  26
6HR MIN TEMP:  31; 6HR MAX TEMP:  34; 6HR PCP:  0.02;

MIDLAND        CLOUDY    34  32  93 SW7       29.91R WCI  28
6HR MIN TEMP:  32; 6HR MAX TEMP:  34;

TROY           CLOUDY    36  32  85 SW8       29.97R WCI  30
SAGINAW HB     CLOUDY    34  32  93 SW7       29.92R WCI  28
$$
MIZ043>046-050>051-056>058-064>065-071>073-077>080-051300-
SOUTHWEST LOWER MICHIGAN

CITY           SKY/WX    TMP DP  RH WIND       PRES   REMARKS
BATTLE CREEK   CLOUDY    34  33  96 W8        29.98R WCI  27
6HR MIN TEMP:  33; 6HR MAX TEMP:  35;

BENTON HARBOR  CLOUDY    37  31  78 W12       30.00S WCI  29
6HR MIN TEMP:  36; 6HR MAX TEMP:  37;

BIG RAPIDS     CLOUDY    35  31  86 W13       29.89R WCI  27
6HR MIN TEMP:  33; 6HR MAX TEMP:  35;

COLDWATER      CLOUDY    34  32  94 W8        29.99R WCI  27
6HR MIN TEMP:  33; 6HR MAX TEMP:  34;

FREMONT        CLOUDY    35  31  86 W6        29.93R WCI  30
HOLLAND        CLOUDY    37  32  82 W12       29.96S WCI  29
6HR MIN TEMP:  36; 6HR MAX TEMP:  38;

GRAND RAPIDS   CLOUDY    35  31  85 SW10      29.96R WCI  27
6HR MIN TEMP:  31; 6HR MAX TEMP:  35; 6HR PCP: TRACE;

IONIA          CLOUDY    34  32  92 SW10      29.94R WCI  26
6HR MIN TEMP:  29; 6HR MAX TEMP:  34;

KALAMAZOO      CLOUDY    35  30  82 W9        29.99R WCI  28
6HR MIN TEMP:  33; 6HR MAX TEMP:  35;

LUDINGTON      CLOUDY    38  33  84 W12G18    29.91R WCI  30
6HR MIN TEMP:  35; 6HR MAX TEMP:  38; 6HR PCP:  0.22;

MARSHALL       CLOUDY    34  32  94 W6        29.97S WCI  29
6HR MIN TEMP:  33; 6HR MAX TEMP:  34;

MOUNT PLEASANT CLOUDY    34  32  93 SW8       29.90R WCI  27
6HR MIN TEMP:  31; 6HR MAX TEMP:  34;

MUSKEGON       CLOUDY    39  32  76 W13       29.96R WCI  31
6HR MIN TEMP:  37; 6HR MAX TEMP:  39;

SOUTH HAVEN    CLOUDY    39  34  83 W9G17     29.99R WCI  33
$$
MIZ016>042-051300-
NORTHERN LOWER MICHIGAN

CITY           SKY/WX    TMP DP  RH WIND       PRES   REMARKS
ALPENA         CLOUDY    34  31  88 SW9       29.80R WCI  27
6HR MIN TEMP:  31; 6HR MAX TEMP:  34; 6HR PCP:  0.03;

BEAVER ISLAND  CLOUDY    37  33  85 W15G24    29.78R WCI  28
6HR MIN TEMP:  34; 6HR MAX TEMP:  37;

BELLAIRE       CLOUDY    35  34  96 SW5       29.83R WCI  31
6HR MIN TEMP:  33; 6HR MAX TEMP:  35;

CADILLAC       CLOUDY    33  31  93 W9        29.84R WCI  25
CHARLEVOIX     LGT RAIN  38  33  82 W18G26    29.82R WCI  29
FRANKFORT      CLOUDY    39  32  76 W13G24    29.86R WCI  31
GAYLORD        CLOUDY    34  29  82 SW14      29.79R WCI  25
6HR MIN TEMP:  31; 6HR MAX TEMP:  34; 6HR PCP: TRACE;

GRAYLING       CLOUDY    33  32  95 SW6       29.83R WCI  28
6HR MIN TEMP:  31; 6HR MAX TEMP:  33;

HARBOR SPRINGS LGT RAIN  38  35  89 W13G23    29.78R WCI  30
HOUGHTON LAKE  CLOUDY    33  30  88 W10       29.84R WCI  25
6HR MIN TEMP:  31; 6HR MAX TEMP:  34; 6HR PCP:  0.01;

MANISTEE       CLOUDY    38  31  76 W15G29    29.89R WCI  29
OSCODA         CLOUDY    33  32  95 MISG      29.85R
6HR MIN TEMP:  32; 6HR MAX TEMP:  33;

PELLSTON       RAIN      35  31  85 W7        29.78R FOG     WCI  29
6HR MIN TEMP:  31; 6HR MAX TEMP:  35; 6HR PCP:  0.04;

ROGERS CITY    CLOUDY    34  32  93 SW8       29.80R WCI  27
TRAVERSE CITY  CLOUDY    36  32  85 SW7       29.84R WCI  30
6HR MIN TEMP:  33; 6HR MAX TEMP:  36; 6HR PCP: TRACE;

$$
MIZ007>008-015-051300-
EASTERN UPPER MICHIGAN

CITY           SKY/WX    TMP DP  RH WIND       PRES   REMARKS
KINROSS        CLOUDY    32  30  93 W10G16    29.75R WCI  24
6HR MIN TEMP:  31; 6HR MAX TEMP:  32; 6HR PCP:  0.04;

MACKINAC ISLAN CLOUDY    35  35 100 W15       29.76R WCI  25
6HR MIN TEMP:  32; 6HR MAX TEMP:  35; 6HR PCP:  0.01;

NEWBERRY       CLOUDY    32  31  96 SW12      29.74S WCI  23
6HR MIN TEMP:  32; 6HR MAX TEMP:  32; 6HR PCP:  0.04;

S. S. MARIE    CLOUDY    33  31  92 SW8       29.74R WCI  26
6HR MIN TEMP:  32; 6HR MAX TEMP:  33; 6HR PCP:  0.12;

MUNISING         N/A     33  31  92 SW8       29.74R WCI  26
6HR MIN TEMP:  32; 6HR MAX TEMP:  33; 6HR PCP:  0.02;

$$
MIZ004>006-011>014-085-051300-
CENTRAL UPPER MICHIGAN

CITY           SKY/WX    TMP DP  RH WIND       PRES   REMARKS
MANISTIQUE     CLOUDY    33  31  94 CALM      29.78R
6HR MIN TEMP:  32; 6HR MAX TEMP:  34;

ESCANABA       CLOUDY    32  31  96 SW9       29.79R WCI  24
6HR MIN TEMP:  30; 6HR MAX TEMP:  32;

MENOMINEE      CLOUDY    33  32  96 SW8       29.84R WCI  26
6HR MIN TEMP:  31; 6HR MAX TEMP:  33;

SAWYER-GWINN   CLOUDY    30  30 100 SW13      29.73R WCI  20
$$
MIZ001>003-009>011-084-051300-
WESTERN UPPER MICHIGAN

CITY           SKY/WX    TMP DP  RH WIND       PRES   REMARKS
IRON MOUNTAIN  CLOUDY    34  28  79 W8        29.75R WCI  27
6HR MIN TEMP:  30; 6HR MAX TEMP:  34;

HOUGHTON       CLOUDY    35  30  82 W16       29.68R WCI  25
6HR MIN TEMP:  29; 6HR MAX TEMP:  35; 6HR PCP: TRACE;

COPPER HARBOR    N/A     33  31  92 W7        29.67R WCI  27
6HR MIN TEMP:  31; 6HR MAX TEMP:  33;

IRONWOOD       CLOUDY    33  28  81 W9        29.76R WCI  25
6HR MIN TEMP:  32; 6HR MAX TEMP:  33; 6HR PCP: TRACE;

$$

ABBREVIATIONS USED IN REMARKS
   TC - TEMPERATURE IN CELSIUS
  WCI - WIND CHILL INDEX
   HX - HEAT INDEX
  VSB - VISIBILITY





USA.gov is the U.S. government's official web portal to all federal, state and local government web resources and services.